User: anonymous
Location: Mount Kobau Star Party
(49.1167°N, 119.7333°W)
Time: 16:45:51
(UTC-07:00)
Language:

TSX-5 - Orbit

View from above orbital plane
View from above orbital plane
View from above satellite
View from above satellite

Ground track
Ground track

The orbit data is extracted from the following two-line orbital elements,

1 26374U 00030A   14245.47626100  .00004444  00000-0  40004-3 0  3819
2 26374 068.9365 326.5261 0699103 344.8151 084.7698 13.93387340713408
Epoch (UTC): 02 September 2014 11:25:48
Eccentricity: 0.0699103
inclination: 68.9365°
perigee height: 407 km
apogee height: 1427 km
right ascension of ascending node: 326.5261°
argument of perigee: 344.8151°
revolutions per day: 13.93387340
mean anomaly at epoch: 84.7698°
orbit number at epoch: 71340

The dashed part of the orbit path shows where the satellite is in the earth's shadow,  

DLR